Regional Weather Roundup
Issued by NWS

Home | Current Version | Previous Version | Text Only | Print | Product List | Glossary Off
Versions: 1 2 3 4 5 6 7 8 9 10 11 12 13 14 15 16 17 18 19 20 21 22 23 24 25 26 27 28 29 30 31 32 33 34 35 36 37 38 39 40 41 42 43 44 45 46 47 48 49 50

000
ASUS43 KDMX 060008
RWRIA

WEATHER ROUNDUP FOR IOWA
NATIONAL WEATHER SERVICE DES MOINES IA
700 PM CDT THU MAY 05 2016

NOTE: "FAIR" INDICATES FEW OR NO CLOUDS BELOW 12,000 FEET WITH NO
SIGNIFICANT WEATHER AND/OR OBSTRUCTIONS TO VISIBILITY.

* - THESE STATIONS ARE NOT NWS STATIONS...THUS NOT UNDER NWS
QUALITY CONTROL.  THEY ALSO DO NOT REPORT WEATHER SUCH
AS PRECIPITATION OR FOG.

IAZ001>003-012>014-020>022-031>034-043>046-060100-
   NORTHWEST IOWA

CITY           SKY/WX    TMP DP  RH WIND       PRES   REMARKS
CARROLL *      SUNNY     75  36  23 W7        29.98F
CHEROKEE *     SUNNY     72  44  37 S6        29.97F
DENISON *      SUNNY     75  39  27 SW6       29.97F
LE MARS *      SUNNY     75  43  31 S10       29.96F
ORANGE CITY *  SUNNY     75  45  33 S9        29.96F
SHELDON *      SUNNY     77  39  25 S10       29.95F
SIOUX CITY     SUNNY     77  46  33 SE12      29.95F
6HR MIN TEMP:  74; 6HR MAX TEMP:  78;

SPENCER        SUNNY     76  36  23 SW10      29.96F
6HR MIN TEMP:  69; 6HR MAX TEMP:  78;

STORM LAKE *   SUNNY     75  36  23 SW9       29.99S
$$

IAZ055>058-069>071-079>083-090>094-060100-
   SOUTHWEST IOWA

CITY           SKY/WX    TMP DP  RH WIND       PRES   REMARKS
ATLANTIC *     SUNNY     73  39  29 S6        30.00S
AUDUBON *      SUNNY     73  34  23 CALM      30.01F
CLARINDA *       N/A     73  39  29 MISG      30.03S
COUNCIL BLFS * SUNNY     73  39  29 CALM      30.00F
CRESTON *      SUNNY     70  39  32 W5        30.03F
HARLAN  *      SUNNY     75  36  23 SW6       30.03S
LAMONI         SUNNY     69  40  34 W3        30.02F
6HR MIN TEMP:  65; 6HR MAX TEMP:  70;

RED OAK *      SUNNY     73  39  29 S7        30.01S
SHENANDOAH *   SUNNY     75  36  23 CALM      30.01F
$$

IAZ047>049-059>061-072>074-084-060100-
   CENTRAL IOWA

CITY           SKY/WX    TMP DP  RH WIND       PRES   REMARKS
AMES           SUNNY     72  36  26 W9        29.99F
6HR MIN TEMP:  64; 6HR MAX TEMP:  73;

ANKENY *       SUNNY     72  36  26 CALM      29.99F
BOONE *        SUNNY     72  36  26 SW7       29.98F
CHARITON *     SUNNY     68  32  26 CALM      30.02F
DES MOINES     MOSUNNY   71  33  24 CALM      30.00F
6HR MIN TEMP:  64; 6HR MAX TEMP:  72;

GRINNELL*      SUNNY     66  36  32 W3        30.01S
KNOXVILLE *    SUNNY     68  34  28 SW3       30.00S
MARSHALLTOWN   SUNNY     69  38  32 SW5       29.98F
6HR MIN TEMP:  63; 6HR MAX TEMP:  71;

NEWTON *       SUNNY     70  30  23 W3        30.00S
PELLA *        SUNNY     68  30  24 W3        30.02F
PERRY *          N/A     73  34  23 W6        29.99F
$$

IAZ004>006-015-016-023>025-035-036-060100-
   NORTH CENTRAL IOWA

CITY           SKY/WX    TMP DP  RH WIND       PRES   REMARKS
ALGONA *       SUNNY     75  37  25 W10       29.97F
CLARION *      SUNNY     75  34  22 W12G17    29.97F
ESTHERVILLE    SUNNY     75  40  28 W9        29.95F
6HR MIN TEMP:  68; 6HR MAX TEMP:  76;

FORT DODGE *   SUNNY     72  43  35 W6        29.99S
MASON CITY     SUNNY     72  42  34 W10       29.97F
6HR MIN TEMP:  65; 6HR MAX TEMP:  74;

FOREST CITY *  SUNNY     72  34  25 W6        29.96S
WEBSTER CITY * SUNNY     73  37  27 W8        29.96F
IOWA FALLS *     N/A     73  34  23 W10       29.99S
$$

IAZ007>011-017>019-026>030-037>042-050>054-066-060100-
   NORTHEAST IOWA

CITY           SKY/WX    TMP DP  RH WIND       PRES   REMARKS
CEDAR RAPIDS   SUNNY     66  36  32 NW7       29.98F
6HR MIN TEMP:  61; 6HR MAX TEMP:  69;

CHARLES CITY * SUNNY     72  32  23 S8        29.97F
CLINTON *      SUNNY     64  39  39 N7        29.99F
DECORAH *      SUNNY     68  36  30 NW6       29.96F
DUBUQUE        SUNNY     64  40  41 N3        29.99F
6HR MIN TEMP:  59; 6HR MAX TEMP:  66;

MONTICELLO *   SUNNY     68  32  26 NW7       29.98S
OELWEIN *      SUNNY     68  36  30 W6        29.99S
WATERLOO       SUNNY     69  33  26 CALM      29.97F
6HR MIN TEMP:  61; 6HR MAX TEMP:  70;

$$

IAZ064-065-067-068-078-060100-
   EAST CENTRAL IOWA

CITY           SKY/WX    TMP DP  RH WIND       PRES   REMARKS
DAVENPORT      SUNNY     66  34  30 NW5       29.99F
6HR MIN TEMP:  60; 6HR MAX TEMP:  68;

IOWA CITY      SUNNY     67  33  28 NW6       30.00F
6HR MIN TEMP:  61; 6HR MAX TEMP:  69;

MT. PLEASANT * SUNNY     69  33  25 NW6       30.00F
MUSCATINE *    SUNNY     66  36  32 NW7       30.00S
QUAD CITIES    SUNNY     66  35  31 NW5       29.98F
6HR MIN TEMP:  62; 6HR MAX TEMP:  68;

$$

IAZ062-063-075>077-085>089-095>099-060100-
   SOUTHEAST IOWA

CITY           SKY/WX    TMP DP  RH WIND       PRES   REMARKS
BURLINGTON     SUNNY     65  37  35 NW8       30.00F
6HR MIN TEMP:  61; 6HR MAX TEMP:  67;

FAIRFIELD *    SUNNY     66  27  22 N7        30.01S
FORT MADISON * SUNNY     64  36  34 NW6       30.01F
KEOKUK *       SUNNY     66  37  34 NW3       30.00F
OSKALOOSA *      N/A     68  27  21 N3        30.01F
OTTUMWA        SUNNY     64  39  39 NW6       30.01F
6HR MIN TEMP:  62; 6HR MAX TEMP:  69;

WASHINGTON *   SUNNY     66  34  30 NW9       30.01F
$$

ABBREVIATIONS USED IN REMARKS
   TC - TEMPERATURES IN CELSIUS
  WCI - WIND CHILL INDEX
   HX - HEAT INDEX
  VSB - VISIBILITY
$$





USA.gov is the U.S. government's official web portal to all federal, state and local government web resources and services.